Aérodrome :
LOGIN :

S'inscrire | Disclaimer

   EN    FR    IT 

 










Légende :    VFR   VFR Marginal   IFR   IFR Intensif   IFR Très Intensif
Visi : 
Plafond : 
>= 8 km
>= 3000ft
5 à 8 km
1000 à 3000 ft
1500m à 5 km
500 à 1000 ft
800 à 1500m
200 à 500 ft
< 800m
< 200 ft
Symboles :   Orages  Brouillard  Fortes neiges  Fortes précipitations  Vent > 20 kt
SIGMETs :   Divers  Orages  Givrage  Turbulence  Onde Orograph.  Cendres Volcan.







- Altitude de l'aérodrome : 512 ft
- Code IATA : URO
- Voir les cartes d'approche


LFOP - Rouen Vallée de Seine

DERNIER METAR :
  • 271300Z AUTO 24006KT 200V300 CAVOK 27/17 Q1016 NOSIG

METARs EXPIRÉS :
  • 271230Z AUTO 23005KT 200V310 CAVOK 26/16 Q1016 NOSIG
  • 271200Z AUTO 23006KT 190V260 CAVOK 26/15 Q1016 NOSIG
  • 271130Z AUTO 22008KT 200V260 CAVOK 26/16 Q1016 NOSIG
  • 271100Z AUTO 24009KT 210V270 CAVOK 26/14 Q1016 NOSIG
  • 271030Z AUTO 25006KT 200V280 CAVOK 26/15 Q1016 NOSIG

TAF TAF LFOP
Valide du 27 à 12h jusqu'au 28 à 12h UTC


271100Z 2712/2812 23012KT CAVOK
BECMG 2716/2719 VRB02KT
PROB30
TEMPO 2800/2807 2000 TSRAGR BKN060CB
ATIS : +33 2 35 80 80 34
Météo : +33 2 32 86 52 80
Pas de NOTAMs connus pour ce terrain.



MET'MAP, la Météo Aéronautique d'un coup d'oeil ! - Copyright ORBIFLY Décembre 2007 - Disclaimer

ORBIFLY MET'MAP TEAM :

Programmation & Développement : Alexandra Zaïnal
Conception & Développement : Baudouin d'Aumeries
Co-Programmation & Développement : Marc-Olivier Méhu
Soutien technique & logistique : Manuel Goepfert

Contact : metmap@orbifly.com




SOURCES & CREDITS :

   NOAA